GW2089 Weather Reports


Display with metric or nautical units.
time (UTC)temp
F
wind
direction
speed
MPH
gust
MPH
rain 1hr
in
rain 24hr
in
rain mn
in
humidity
%
barometer
mb
20260508115510 65 352 0.0 0.0 0.00 0.00 0.00 36 1019.6
20260508115007 64 273 0.0 1.0 0.00 0.00 0.00 36 1019.5
20260508114504 63 184 0.0 1.0 0.00 0.00 0.00 38 1019.5
20260508114000 64 87 1.0 2.0 0.00 0.00 0.00 37 1019.9
20260508113458 63 7 1.0 2.0 0.00 0.00 0.00 36 1019.7
20260508112955 62 353 1.0 1.0 0.00 0.00 0.00 36 1019.7
20260508112451 63 331 0.0 1.0 0.00 0.00 0.00 35 1019.6
20260508111948 62 331 1.0 1.0 0.00 0.00 0.00 38 1019.7
20260508111445 62 271 0.0 0.0 0.00 0.00 0.00 37 1019.6
20260508110942 63 352 1.0 1.0 0.00 0.00 0.00 38 1019.9
20260508110440 62 255 1.0 1.0 0.00 0.00 0.00 38 1019.5
20260508105939 62 15 1.0 1.0 0.00 0.00 0.00 37 1019.7
20260508105436 61 353 0.0 1.0 0.00 0.00 0.00 40 1020.0
20260508104933 60 295 0.0 0.0 0.00 0.00 0.00 43 1019.8
20260508104431 59 224 0.0 1.0 0.00 0.00 0.00 45 1020.1
20260508103927 59 347 0.0 0.0 0.00 0.00 0.00 44 1019.9
20260508103424 58 336 0.0 0.0 0.00 0.00 0.00 44 1020.1
20260508102921 59 288 3.0 5.0 0.00 0.00 0.00 43 1020.2
20260508102420 59 270 2.0 2.0 0.00 0.00 0.00 43 1020.3
20260508101917 59 1 0.0 1.0 0.00 0.00 0.00 43 1020.1
20260508101414 59 42 2.0 3.0 0.00 0.00 0.00 41 1020.3
20260508100911 60 318 0.0 0.0 0.00 0.00 0.00 41 1020.2
20260508100410 59 289 0.0 0.0 0.00 0.00 0.00 42 1020.4
20260508095905 59 293 1.0 1.0 0.00 0.00 0.00 43 1020.2
20260508095403 60 349 1.0 1.0 0.00 0.00 0.00 40 1020.3
20260508094859 59 274 0.0 1.0 0.00 0.00 0.00 41 1020.3
20260508094356 60 15 1.0 1.0 0.00 0.00 0.00 40 1020.2
20260508093853 59 0 1.0 1.0 0.00 0.00 0.00 39 1020.0
20260508093351 59 321 0.0 1.0 0.00 0.00 0.00 41 1020.1
20260508092848 59 42 0.0 0.0 0.00 0.00 0.00 40 1020.0
20260508092346 58 170 0.0 1.0 0.00 0.00 0.00 42 1020.1
20260508091844 58 72 0.0 0.0 0.00 0.00 0.00 41 1019.9
20260508091340 59 261 1.0 1.0 0.00 0.00 0.00 40 1020.4
20260508090838 59 359 0.0 1.0 0.00 0.00 0.00 38 1020.3
20260508090337 58 20 1.0 2.0 0.00 0.00 0.00 36 1020.4
20260508085832 58 56 4.0 5.0 0.00 0.00 0.00 32 1020.3
20260508085329 57 12 3.0 5.0 0.00 0.00 0.00 34 1020.4
20260508084825 58 41 4.0 7.0 0.00 0.00 0.00 31 1020.4
20260508084322 57 37 2.0 2.0 0.00 0.00 0.00 33 1020.6
20260508083820 57 7 3.0 5.0 0.00 0.00 0.00 32 1020.2
20260508083317 57 53 1.0 2.0 0.00 0.00 0.00 33 1020.4
20260508082817 57 340 1.0 2.0 0.00 0.00 0.00 34 1020.4
20260508082315 57 14 1.0 2.0 0.00 0.00 0.00 34 1020.4
20260508081812 57 14 1.0 2.0 0.00 0.00 0.00 36 1020.6
20260508081309 56 10 0.0 1.0 0.00 0.00 0.00 35 1020.5
20260508080806 57 34 1.0 3.0 0.00 0.00 0.00 35 1020.3
20260508080304 56 50 1.0 3.0 0.00 0.00 0.00 35 1020.5
20260508075800 55 54 0.0 1.0 0.00 0.00 0.00 37 1020.4
20260508075257 55 50 1.0 2.0 0.00 0.00 0.00 37 1020.5
20260508074755 55 5 4.0 6.0 0.00 0.00 0.00 37 1020.5
20260508074251 55 48 5.0 6.0 0.00 0.00 0.00 39 1020.4
20260508073749 55 18 0.0 0.0 0.00 0.00 0.00 40 1020.5
20260508073247 55 44 1.0 2.0 0.00 0.00 0.00 38 1020.6
20260508072742 54 33 1.0 1.0 0.00 0.00 0.00 41 1020.3
20260508072239 55 320 1.0 1.0 0.00 0.00 0.00 42 1020.2
20260508071737 54 30 2.0 3.0 0.00 0.00 0.00 41 1020.0
20260508071235 53 74 2.0 5.0 0.00 0.00 0.00 43 1020.3
20260508070732 54 18 1.0 2.0 0.00 0.00 0.00 42 1020.3
20260508070231 54 19 0.0 1.0 0.00 0.00 0.00 46 1020.3
20260508065727 53 40 1.0 3.0 0.00 0.00 0.00 42 1020.3
20260508065225 54 27 1.0 1.0 0.00 0.00 0.00 42 1020.3
20260508064723 54 1 0.0 1.0 0.00 0.00 0.00 44 1020.4
20260508064221 54 32 2.0 3.0 0.00 0.00 0.00 43 1020.3
20260508063718 53 11 0.0 0.0 0.00 0.00 0.00 45 1020.3
20260508063216 52 353 0.0 1.0 0.00 0.00 0.00 43 1020.2
20260508062713 52 72 2.0 2.0 0.00 0.00 0.00 43 1020.0
20260508062210 52 26 1.0 1.0 0.00 0.00 0.00 45 1020.0
20260508061707 51 31 1.0 1.0 0.00 0.00 0.00 48 1020.0
20260508061205 51 27 1.0 2.0 0.00 0.00 0.00 48 1019.8
20260508060702 50 49 1.0 2.0 0.00 0.00 0.00 50 1020.2
20260508060158 51 23 1.0 3.0 0.00 0.00 0.00 53 1020.0
20260508055654 50 40 0.0 1.0 0.00 0.00 0.00 61 1019.8
20260508055151 51 39 2.0 2.0 0.00 0.00 0.00 59 1019.9
20260508054647 50 16 0.0 1.0 0.00 0.00 0.00 61 1019.8
20260508054145 50 20 0.0 0.0 0.00 0.00 0.00 62 1019.9
20260508053642 50 13 0.0 1.0 0.00 0.00 0.00 62 1019.8
20260508053139 50 30 2.0 2.0 0.00 0.00 0.00 61 1019.9
20260508052637 50 45 2.0 2.0 0.00 0.00 0.00 61 1019.7
20260508052134 50 43 2.0 2.0 0.00 0.00 0.00 64 1019.6
20260508051630 50 1 0.0 1.0 0.00 0.00 0.00 65 1019.7
20260508051125 50 351 0.0 0.0 0.00 0.00 0.00 66 1019.7
20260508050621 49 4 0.0 0.0 0.00 0.00 0.00 67 1019.8
20260508050119 48 27 1.0 1.0 0.00 0.00 0.00 67 1019.7
20260508045615 48 20 1.0 1.0 0.00 0.00 0.00 70 1019.7
20260508045113 47 32 0.0 1.0 0.00 0.00 0.00 70 1019.7
20260508044610 48 21 0.0 1.0 0.00 0.00 0.00 69 1019.8
20260508044106 48 356 0.0 1.0 0.00 0.00 0.00 70 1019.9
20260508043603 49 1 0.0 0.0 0.00 0.00 0.00 68 1019.8
20260508043100 47 13 0.0 0.0 0.00 0.00 0.00 71 1019.6
20260508042557 46 42 0.0 1.0 0.00 0.00 0.00 73 1019.5
20260508042054 46 1 0.0 0.0 0.00 0.00 0.00 75 1019.6
20260508041550 46 18 0.0 1.0 0.00 0.00 0.00 74 1019.3
20260508041047 46 16 0.0 0.0 0.00 0.00 0.00 76 1019.3
20260508040544 45 13 0.0 0.0 0.00 0.00 0.00 79 1018.9
20260508040042 44 27 1.0 1.0 0.00 0.00 0.00 89 1019.0
20260508035538 43 324 0.0 0.0 0.00 0.00 0.00 94 1019.2
20260508035035 42 325 0.0 0.0 0.00 0.00 0.00 95 1019.1
20260508034532 41 324 0.0 0.0 0.00 0.00 0.00 95 1018.9
20260508034029 40 323 0.0 0.0 0.00 0.00 0.00 95 1019.0
20260508033527 40 323 0.0 0.0 0.00 0.00 0.00 96 1018.8
20260508033025 39 324 0.0 0.0 0.00 0.00 0.00 96 1018.8
20260508032521 39 323 0.0 0.0 0.00 0.00 0.00 96 1018.9
20260508032019 38 320 0.0 0.0 0.00 0.00 0.00 96 1018.7
20260508031516 38 320 0.0 0.0 0.00 0.00 0.00 96 1018.5
20260508031011 38 320 0.0 0.0 0.00 0.00 0.00 96 1018.5
20260508030509 38 317 0.0 0.0 0.00 0.00 0.00 96 1018.6
20260508030007 38 317 0.0 0.0 0.00 0.00 0.00 96 1018.6
20260508025502 38 317 0.0 0.0 0.00 0.00 0.00 96 1018.4
20260508024959 38 318 0.0 0.0 0.00 0.00 0.00 96 1018.6
20260508024455 38 320 0.0 0.0 0.00 0.00 0.00 96 1018.4
20260508023952 38 327 0.0 0.0 0.00 0.00 0.00 95 1018.2
20260508023449 37 326 0.0 0.0 0.00 0.00 0.00 95 1018.0
20260508022946 37 326 0.0 0.0 0.00 0.00 0.00 95 1018.3
20260508022442 37 326 0.0 0.0 0.00 0.00 0.00 95 1018.3
20260508021939 37 326 0.0 0.0 0.00 0.00 0.00 95 1018.3
20260508021435 37 326 0.0 0.0 0.00 0.00 0.00 95 1018.4
20260508020931 37 324 0.0 0.0 0.00 0.00 0.00 95 1018.2
20260508020429 37 325 0.0 0.0 0.00 0.00 0.00 95 1018.2
20260508015926 37 325 0.0 0.0 0.00 0.00 0.00 95 1018.1
20260508015424 37 325 0.0 0.0 0.00 0.00 0.00 95 1018.1
20260508014920 37 325 0.0 0.0 0.00 0.00 0.00 95 1018.1
20260508014417 37 325 0.0 0.0 0.00 0.00 0.00 95 1017.9
20260508013912 37 322 0.0 0.0 0.00 0.00 0.00 95 1018.0
20260508013409 37 318 0.0 0.0 0.00 0.00 0.00 95 1018.0
20260508012906 37 318 0.0 0.0 0.00 0.00 0.00 95 1018.0
20260508012403 37 318 0.0 0.0 0.00 0.00 0.00 94 1017.7
20260508011901 37 318 0.0 0.0 0.00 0.00 0.00 94 1017.7
20260508011359 37 319 0.0 0.0 0.00 0.00 0.00 94 1017.8
20260508010855 37 319 0.0 0.0 0.00 0.00 0.00 94 1017.7
20260508010353 37 318 0.0 0.0 0.00 0.00 0.00 94 1017.7
20260508005850 37 318 0.0 0.0 0.00 0.00 0.00 94 1017.7
20260508005346 37 318 0.0 0.0 0.00 0.00 0.00 94 1017.6
20260508004843 37 318 0.0 0.0 0.00 0.00 0.00 94 1017.6
20260508004339 37 318 0.0 0.0 0.00 0.00 0.00 94 1017.6
20260508003835 37 318 0.0 0.0 0.00 0.00 0.00 94 1017.4
20260508003333 37 318 0.0 0.0 0.00 0.00 0.00 94 1017.6
20260508002830 37 318 0.0 0.0 0.00 0.00 0.00 94 1017.3
20260508002326 37 318 0.0 0.0 0.00 0.00 0.00 94 1017.4
20260508001823 37 318 0.0 0.0 0.00 0.00 0.00 94 1017.3
20260508001319 37 318 0.0 0.0 0.00 0.00 0.00 93 1017.4
20260508000815 37 318 0.0 0.0 0.00 0.00 0.00 93 1017.2
20260508000312 37 319 0.0 0.0 0.00 0.00 0.00 93 1017.4
20260507235808 37 318 0.0 0.0 0.00 0.00 0.00 93 1017.4
20260507235307 37 318 0.0 0.0 0.00 0.00 0.00 93 1017.3
20260507234803 38 318 0.0 0.0 0.00 0.00 0.00 93 1017.3
20260507234259 38 319 0.0 0.0 0.00 0.00 0.00 93 1017.2
20260507233755 38 319 0.0 0.0 0.00 0.00 0.00 93 1017.2
20260507233253 38 319 0.0 0.0 0.00 0.00 0.00 93 1017.0
20260507232751 38 319 0.0 0.0 0.00 0.00 0.00 92 1016.9
20260507232248 38 319 0.0 0.0 0.00 0.00 0.00 92 1017.1
20260507231744 38 320 0.0 0.0 0.00 0.00 0.00 92 1016.7
20260507231241 38 320 0.0 0.0 0.00 0.00 0.00 92 1016.8
20260507230737 38 320 0.0 0.0 0.00 0.00 0.00 92 1016.7
20260507230235 39 319 0.0 0.0 0.00 0.00 0.00 92 1016.7
20260507225734 39 319 0.0 0.0 0.00 0.00 0.00 91 1016.6
20260507225231 39 319 0.0 0.0 0.00 0.00 0.00 91 1016.8
20260507224727 39 319 0.0 0.0 0.00 0.00 0.00 91 1016.7
20260507224224 39 319 0.0 0.0 0.00 0.00 0.00 91 1016.6
20260507223720 39 320 0.0 0.0 0.00 0.00 0.00 91 1016.3
20260507223217 39 323 0.0 0.0 0.00 0.00 0.00 90 1016.3
20260507222713 39 323 0.0 0.0 0.00 0.00 0.00 90 1016.4
20260507222210 40 323 0.0 0.0 0.00 0.00 0.00 90 1016.3
20260507221707 40 323 0.0 0.0 0.00 0.00 0.00 90 1016.3
20260507221203 40 323 0.0 0.0 0.00 0.00 0.00 89 1016.3
20260507220700 40 323 0.0 0.0 0.00 0.00 0.00 89 1016.1
20260507220158 40 323 0.0 0.0 0.00 0.00 0.00 89 1015.9
20260507215654 40 323 0.0 0.0 0.00 0.00 0.00 88 1016.0
20260507215152 40 323 0.0 0.0 0.00 0.00 0.00 88 1016.1
20260507214649 40 323 0.0 0.0 0.00 0.00 0.00 87 1016.0
20260507214145 40 323 0.0 0.0 0.00 0.00 0.00 87 1015.8
20260507213641 40 323 0.0 0.0 0.00 0.00 0.00 87 1015.7
20260507213138 40 317 0.0 0.0 0.00 0.00 0.00 86 1015.8
20260507212634 40 317 0.0 0.0 0.00 0.00 0.00 86 1015.8
20260507212131 40 317 0.0 0.0 0.00 0.00 0.00 86 1015.8
20260507211628 41 317 0.0 0.0 0.00 0.00 0.00 86 1015.8
20260507211123 41 317 0.0 0.0 0.00 0.00 0.00 85 1015.8
20260507210622 41 316 0.0 0.0 0.00 0.00 0.00 85 1015.7
20260507210118 41 316 0.0 0.0 0.00 0.00 0.00 85 1015.6
20260507205615 41 316 0.0 0.0 0.00 0.02 0.02 85 1015.9
20260507205111 41 317 0.0 0.0 0.00 0.02 0.02 84 1015.6
20260507204607 41 316 0.0 0.0 0.00 0.02 0.02 84 1015.5
20260507204105 42 319 0.0 0.0 0.00 0.02 0.02 84 1015.2
20260507203603 42 319 0.0 0.0 0.00 0.02 0.02 84 1015.4
20260507203100 42 319 0.0 0.0 0.00 0.02 0.02 83 1015.1
20260507202555 42 319 0.0 0.0 0.00 0.02 0.02 83 1015.3
20260507202052 42 319 0.0 0.0 0.00 0.02 0.02 83 1015.4
20260507201547 42 320 0.0 0.0 0.00 0.02 0.02 82 1015.1
20260507201044 42 323 0.0 0.0 0.00 0.02 0.02 82 1015.1
20260507200540 42 324 0.0 0.0 0.00 0.02 0.02 82 1015.0
20260507200036 42 324 0.0 0.0 0.00 0.02 0.02 82 1014.8
20260507195533 43 324 0.0 0.0 0.00 0.02 0.02 81 1014.9
20260507195031 43 324 0.0 0.0 0.00 0.02 0.02 81 1015.1
20260507194527 43 321 0.0 0.0 0.00 0.02 0.02 81 1014.9
20260507194023 43 321 0.0 0.0 0.00 0.02 0.02 80 1014.9
20260507193520 43 324 0.0 0.0 0.00 0.02 0.02 80 1014.5
20260507193017 43 325 0.0 0.0 0.00 0.02 0.02 80 1014.7
20260507192513 44 330 0.0 0.0 0.00 0.02 0.02 79 1014.5
20260507192010 44 330 0.0 0.0 0.00 0.02 0.02 79 1014.5
20260507191506 44 330 0.0 0.0 0.00 0.02 0.02 78 1014.4
20260507191003 44 331 0.0 0.0 0.00 0.02 0.02 77 1014.3
20260507190500 45 335 0.0 0.0 0.00 0.02 0.02 77 1014.5
20260507185959 45 328 0.0 0.0 0.00 0.02 0.02 77 1014.5
20260507185456 45 343 0.0 0.0 0.00 0.02 0.02 77 1014.3
20260507184953 45 332 0.0 0.0 0.00 0.02 0.02 77 1014.3
20260507184451 45 346 0.0 1.0 0.00 0.02 0.02 76 1014.4
20260507183949 45 328 0.0 0.0 0.00 0.02 0.02 76 1014.1
20260507183445 45 339 0.0 0.0 0.00 0.02 0.02 76 1014.0
20260507182942 46 332 0.0 0.0 0.00 0.02 0.02 74 1014.0
20260507182438 46 337 0.0 0.0 0.00 0.02 0.02 74 1013.8
20260507181934 46 292 0.0 0.0 0.00 0.02 0.02 73 1013.8
20260507181430 46 343 0.0 0.0 0.00 0.02 0.02 73 1013.7
20260507180927 46 349 0.0 0.0 0.00 0.02 0.02 73 1013.8
20260507180424 47 313 0.0 0.0 0.00 0.02 0.02 72 1013.8
20260507175920 47 349 0.0 0.0 0.00 0.02 0.02 71 1013.6
20260507175417 47 358 0.0 1.0 0.00 0.02 0.02 71 1013.9
20260507174914 48 347 0.0 0.0 0.00 0.02 0.02 70 1013.6
20260507174412 48 333 0.0 0.0 0.00 0.02 0.02 70 1013.5
20260507173909 48 353 0.0 0.0 0.00 0.02 0.02 68 1013.4
20260507173406 49 350 0.0 0.0 0.00 0.02 0.02 67 1013.5
20260507172902 49 335 0.0 0.0 0.00 0.02 0.02 66 1013.4
20260507172359 49 11 1.0 2.0 0.00 0.02 0.02 65 1013.2
20260507171855 49 358 0.0 0.0 0.00 0.02 0.02 64 1013.2
20260507171352 50 345 0.0 0.0 0.00 0.02 0.02 65 1013.4
20260507170849 50 340 0.0 0.0 0.00 0.02 0.02 64 1013.1
20260507170345 50 325 0.0 0.0 0.00 0.02 0.02 64 1012.9
20260507165842 50 343 0.0 0.0 0.00 0.02 0.02 63 1013.1
20260507165337 50 313 0.0 0.0 0.00 0.02 0.02 65 1012.9
20260507164834 50 338 0.0 0.0 0.00 0.02 0.02 63 1012.9
20260507164331 50 318 0.0 1.0 0.00 0.02 0.02 62 1012.9
20260507163828 51 342 0.0 0.0 0.00 0.02 0.02 62 1013.0
20260507163325 51 346 0.0 0.0 0.00 0.02 0.02 61 1012.8
20260507162821 51 232 1.0 2.0 0.00 0.02 0.02 58 1012.7
20260507162317 51 337 0.0 0.0 0.00 0.02 0.02 60 1012.5
20260507161815 51 32 0.0 0.0 0.00 0.02 0.02 59 1012.8
20260507161311 51 305 0.0 1.0 0.00 0.02 0.02 61 1012.5
20260507160808 51 3 0.0 0.0 0.00 0.02 0.02 61 1012.5
20260507160304 51 351 0.0 0.0 0.00 0.02 0.02 61 1012.4
20260507155759 51 8 0.0 0.0 0.00 0.02 0.02 60 1012.3
20260507155256 51 23 0.0 0.0 0.00 0.02 0.02 59 1012.2
20260507154752 52 9 0.0 1.0 0.00 0.02 0.02 58 1012.2
20260507154250 52 152 0.0 1.0 0.00 0.02 0.02 57 1012.5
20260507153746 52 355 1.0 1.0 0.00 0.02 0.02 60 1012.3
20260507153243 52 332 0.0 0.0 0.00 0.02 0.02 59 1012.3
20260507152740 51 339 0.0 0.0 0.00 0.02 0.02 63 1012.2
20260507152236 51 29 1.0 3.0 0.00 0.02 0.02 66 1012.2
20260507151732 50 4 1.0 1.0 0.00 0.02 0.02 67 1012.1
20260507151229 50 58 1.0 1.0 0.00 0.02 0.02 67 1012.1
20260507150726 50 306 1.0 1.0 0.00 0.02 0.02 69 1012.3
20260507150222 50 349 0.0 0.0 0.00 0.02 0.02 69 1012.2
20260507145718 50 18 0.0 0.0 0.00 0.02 0.02 70 1012.3
20260507145215 50 325 0.0 1.0 0.00 0.02 0.02 70 1012.1
20260507144712 50 1 1.0 2.0 0.00 0.02 0.02 71 1012.1
20260507144210 50 230 0.0 0.0 0.00 0.02 0.02 73 1012.0
20260507143706 50 310 0.0 0.0 0.00 0.02 0.02 73 1011.9
20260507143203 50 340 0.0 0.0 0.00 0.02 0.02 72 1012.0
20260507142659 50 7 1.0 1.0 0.00 0.02 0.02 73 1011.7
20260507142156 50 21 0.0 1.0 0.00 0.02 0.02 73 1011.8
20260507141652 50 309 0.0 0.0 0.00 0.02 0.02 73 1011.7
20260507141149 50 323 0.0 0.0 0.00 0.02 0.02 74 1011.8
20260507140645 50 280 0.0 1.0 0.00 0.02 0.02 74 1011.9
20260507140143 50 349 0.0 0.0 0.00 0.02 0.02 72 1012.0
20260507135640 50 353 0.0 0.0 0.00 0.02 0.02 72 1012.0
20260507135137 50 328 0.0 0.0 0.00 0.02 0.02 72 1011.9
20260507134633 50 13 0.0 1.0 0.00 0.02 0.02 71 1011.8
20260507134130 50 357 0.0 0.0 0.00 0.02 0.02 72 1011.9
20260507133626 50 356 0.0 1.0 0.00 0.02 0.02 71 1011.8
20260507133123 50 18 0.0 0.0 0.00 0.02 0.02 71 1011.8
20260507132620 50 350 1.0 1.0 0.00 0.02 0.02 71 1011.8
20260507132116 50 8 0.0 0.0 0.00 0.02 0.02 73 1011.5
20260507131613 49 7 1.0 1.0 0.00 0.02 0.02 73 1011.7
20260507131111 49 10 0.0 1.0 0.00 0.02 0.02 74 1011.6
20260507130607 49 54 1.0 1.0 0.00 0.02 0.02 73 1011.7
20260507130106 49 10 1.0 2.0 0.00 0.02 0.02 73 1011.4
20260507125604 49 12 0.0 0.0 0.00 0.02 0.02 74 1011.4
20260507125101 48 357 0.0 1.0 0.00 0.02 0.02 75 1011.6
20260507124557 48 14 2.0 2.0 0.00 0.02 0.02 74 1011.5
20260507124055 48 8 0.0 1.0 0.00 0.02 0.02 75 1011.4
20260507123553 48 24 0.0 0.0 0.00 0.02 0.02 76 1011.2
20260507123049 48 347 0.0 0.0 0.00 0.02 0.02 76 1011.3
20260507122545 48 27 0.0 2.0 0.00 0.02 0.02 76 1011.0
20260507122041 48 18 0.0 1.0 0.00 0.02 0.02 76 1011.0
20260507121537 48 23 0.0 1.0 0.00 0.02 0.02 75 1011.2
20260507121033 48 38 0.0 1.0 0.00 0.02 0.02 77 1010.9
20260507120529 48 340 0.0 0.0 0.00 0.02 0.02 77 1011.1
20260507120026 48 327 0.0 1.0 0.00 0.02 0.02 77 1011.0